Location: Kvarnån
(66.4000°N, 22.2667°E)
Time: 21:43:09
(UTC+00:00)

USA 245 - Pass Details

Date: 15 October 2024
Orbit: 267 x 1026 km, 97.9° (Epoch: 18 September)

Event Time Altitude Azimuth Distance (km) Brightness Sun altitude
Exits shadow 18:27:43 41° 130° (SE) 1,264 4.6 -20.9°
Maximum altitude 18:29:46 69° 61° (ENE) 978 4.3 -21.0°
Drops below altitude 10° 18:36:01 10° 340° (NNW) 2,762 7.5 -21.6°
Sets 18:38:39 0° 338° (NNW) 3,748 8.4 -21.8°
